| time (UTC) | temp F | wind direction | speed knots | gust knots | rain 1hr in | rain 24hr in | rain mn in | humidity % | barometer mb |
| 20260502163806 | 65 | 16 | 0.0 | 0.0 | 0.00 | 0.00 | 0.00 | 13 | 1019.0 |
| 20260502162828 | 65 | 15 | 0.0 | 0.0 | 0.00 | 0.00 | 0.00 | 13 | 1019.0 |
| 20260502161851 | 65 | 14 | 0.0 | 0.0 | 0.00 | 0.00 | 0.00 | 13 | 1019.0 |
| 20260502160913 | 65 | 16 | 0.0 | 0.0 | 0.00 | 0.00 | 0.00 | 13 | 1019.0 |
| 20260502152102 | 67 | 12 | 0.0 | 0.0 | 0.00 | 0.00 | 0.00 | 13 | 1020.0 |
| 20260502151123 | 67 | 14 | 0.0 | 0.0 | 0.00 | 0.00 | 0.00 | 13 | 1020.0 |
| 20260502150145 | 67 | 12 | 0.0 | 0.0 | 0.00 | 0.00 | 0.00 | 13 | 1020.0 |
| 20260502130611 | 66 | 16 | 0.0 | 0.0 | 0.00 | 0.00 | 0.00 | 13 | 1021.0 |
| 20260502123720 | 66 | 14 | 0.0 | 0.0 | 0.00 | 0.00 | 0.00 | 13 | 1021.0 |
| 20260502121801 | 67 | 15 | 0.0 | 0.0 | 0.00 | 0.00 | 0.00 | 13 | 1021.0 |
| 20260502120824 | 66 | 14 | 0.0 | 0.0 | 0.00 | 0.00 | 0.00 | 13 | 1021.0 |
| 20260502115846 | 66 | 13 | 0.0 | 0.0 | 0.00 | 0.00 | 0.00 | 13 | 1021.0 |
| 20260502114909 | 67 | 12 | 0.0 | 0.0 | 0.00 | 0.00 | 0.00 | 13 | 1021.0 |
| 20260502113930 | 66 | 15 | 0.0 | 0.0 | 0.00 | 0.00 | 0.00 | 13 | 1021.0 |
| 20260502112952 | 66 | 16 | 0.0 | 0.0 | 0.00 | 0.00 | 0.00 | 13 | 1022.0 |
| 20260502112018 | 66 | 17 | 0.0 | 0.0 | 0.00 | 0.00 | 0.00 | 15 | 1022.0 |
| 20260502111036 | 66 | 14 | 0.0 | 0.0 | 0.00 | 0.00 | 0.00 | 13 | 1022.0 |
| 20260502110101 | 68 | 12 | 0.0 | 0.0 | 0.00 | 0.00 | 0.00 | 12 | 1022.0 |
| 20260502105121 | 69 | 13 | 0.0 | 0.0 | 0.00 | 0.00 | 0.00 | 12 | 1022.0 |
| 20260502104143 | 68 | 10 | 0.0 | 0.0 | 0.00 | 0.00 | 0.00 | 10 | 1022.0 |
| 20260502103205 | 68 | 12 | 0.0 | 0.0 | 0.00 | 0.00 | 0.00 | 10 | 1022.0 |
| 20260502102227 | 68 | 12 | 0.0 | 0.0 | 0.00 | 0.00 | 0.00 | 10 | 1022.0 |
| 20260502101249 | 68 | 11 | 0.0 | 0.0 | 0.00 | 0.00 | 0.00 | 12 | 1022.0 |
| 20260502100313 | 68 | 12 | 0.0 | 0.0 | 0.00 | 0.00 | 0.00 | 12 | 1022.0 |
| 20260502091502 | 66 | 15 | 0.0 | 0.0 | 0.00 | 0.00 | 0.00 | 13 | 1022.0 |
| 20260502090524 | 65 | 15 | 0.0 | 0.0 | 0.00 | 0.00 | 0.00 | 13 | 1022.0 |
| 20260502070950 | 64 | 20 | 0.0 | 0.0 | 0.00 | 0.00 | 0.00 | 16 | 1023.0 |
| 20260502070012 | 64 | 23 | 0.0 | 0.0 | 0.00 | 0.00 | 0.00 | 16 | 1023.0 |
| 20260502065038 | 64 | 24 | 0.0 | 0.0 | 0.00 | 0.00 | 0.00 | 16 | 1023.0 |
| 20260502064056 | 64 | 21 | 0.0 | 0.0 | 0.00 | 0.00 | 0.00 | 16 | 1023.0 |
| 20260502063118 | 64 | 22 | 0.0 | 0.0 | 0.00 | 0.00 | 0.00 | 16 | 1023.0 |
| 20260502062141 | 64 | 24 | 0.0 | 0.0 | 0.00 | 0.00 | 0.00 | 16 | 1022.0 |
| 20260502061203 | 64 | 23 | 0.0 | 0.0 | 0.00 | 0.00 | 0.00 | 16 | 1022.0 |
| 20260502060227 | 64 | 23 | 0.0 | 0.0 | 0.00 | 0.00 | 0.00 | 18 | 1023.0 |
| 20260502055250 | 64 | 24 | 0.0 | 0.0 | 0.00 | 0.00 | 0.00 | 18 | 1022.0 |
| 20260502054309 | 64 | 25 | 0.0 | 0.0 | 0.00 | 0.00 | 0.00 | 18 | 1022.0 |
| 20260502052355 | 64 | 25 | 0.0 | 0.0 | 0.00 | 0.00 | 0.00 | 18 | 1022.0 |
| 20260502051416 | 64 | 24 | 0.0 | 0.0 | 0.00 | 0.00 | 0.00 | 18 | 1022.0 |
| 20260502050438 | 64 | 25 | 0.0 | 0.0 | 0.00 | 0.00 | 0.00 | 18 | 1022.0 |
| 20260502045500 | 64 | 25 | 0.0 | 0.0 | 0.00 | 0.00 | 0.00 | 18 | 1022.0 |
| 20260502044522 | 64 | 24 | 0.0 | 0.0 | 0.00 | 0.00 | 0.00 | 18 | 1022.0 |
| 20260502043544 | 64 | 22 | 0.0 | 0.0 | 0.00 | 0.00 | 0.00 | 18 | 1022.0 |
| 20260502042606 | 64 | 23 | 0.0 | 0.0 | 0.00 | 0.00 | 0.00 | 18 | 1022.0 |
| 20260502041629 | 64 | 23 | 0.0 | 0.0 | 0.00 | 0.00 | 0.00 | 18 | 1022.0 |
| 20260502040654 | 64 | 25 | 0.0 | 0.0 | 0.00 | 0.00 | 0.00 | 18 | 1022.0 |
| 20260502035713 | 64 | 25 | 0.0 | 0.0 | 0.00 | 0.00 | 0.00 | 18 | 1022.0 |
| 20260502034735 | 64 | 23 | 0.0 | 0.0 | 0.00 | 0.00 | 0.00 | 18 | 1022.0 |
| 20260502033757 | 64 | 25 | 0.0 | 0.0 | 0.00 | 0.00 | 0.00 | 18 | 1022.0 |
| 20260502032819 | 64 | 23 | 0.0 | 0.0 | 0.00 | 0.00 | 0.00 | 16 | 1022.0 |
| 20260502031841 | 64 | 21 | 0.0 | 0.0 | 0.00 | 0.00 | 0.00 | 16 | 1022.0 |
| 20260502030906 | 64 | 23 | 0.0 | 0.0 | 0.00 | 0.00 | 0.00 | 16 | 1022.0 |
| 20260502025926 | 64 | 21 | 0.0 | 0.0 | 0.00 | 0.00 | 0.00 | 16 | 1022.0 |
| 20260502024948 | 64 | 19 | 0.0 | 0.0 | 0.00 | 0.00 | 0.00 | 16 | 1022.0 |
| 20260502024010 | 64 | 19 | 0.0 | 0.0 | 0.00 | 0.00 | 0.00 | 16 | 1022.0 |
| 20260502023032 | 64 | 22 | 0.0 | 0.0 | 0.00 | 0.00 | 0.00 | 16 | 1022.0 |
| 20260502022054 | 64 | 22 | 0.0 | 0.0 | 0.00 | 0.00 | 0.00 | 16 | 1022.0 |
| 20260502021116 | 64 | 19 | 0.0 | 0.0 | 0.00 | 0.00 | 0.00 | 16 | 1022.0 |
| 20260502020138 | 64 | 22 | 0.0 | 0.0 | 0.00 | 0.00 | 0.00 | 16 | 1022.0 |
| 20260502015204 | 64 | 23 | 0.0 | 0.0 | 0.00 | 0.00 | 0.00 | 16 | 1023.0 |
| 20260502014223 | 64 | 22 | 0.0 | 0.0 | 0.00 | 0.00 | 0.00 | 16 | 1022.0 |
| 20260502013245 | 64 | 21 | 0.0 | 0.0 | 0.00 | 0.00 | 0.00 | 18 | 1022.0 |
| 20260502012307 | 64 | 22 | 0.0 | 0.0 | 0.00 | 0.00 | 0.00 | 16 | 1022.0 |
| 20260502011329 | 64 | 21 | 0.0 | 0.0 | 0.00 | 0.00 | 0.00 | 16 | 1022.0 |
| 20260502010351 | 64 | 24 | 0.0 | 0.0 | 0.00 | 0.00 | 0.00 | 18 | 1023.0 |
| 20260502005414 | 64 | 22 | 0.0 | 0.0 | 0.00 | 0.00 | 0.00 | 18 | 1023.0 |
| 20260502004436 | 64 | 24 | 0.0 | 0.0 | 0.00 | 0.00 | 0.00 | 18 | 1023.0 |
| 20260502003458 | 64 | 24 | 0.0 | 0.0 | 0.00 | 0.00 | 0.00 | 18 | 1023.0 |
| 20260502002520 | 64 | 25 | 0.0 | 0.0 | 0.00 | 0.00 | 0.00 | 18 | 1023.0 |
| 20260502000606 | 64 | 22 | 0.0 | 0.0 | 0.00 | 0.00 | 0.00 | 18 | 1023.0 |
| 20260501235630 | 64 | 22 | 0.0 | 0.0 | 0.00 | 0.00 | 0.00 | 18 | 1023.0 |
| 20260501234651 | 64 | 22 | 0.0 | 0.0 | 0.00 | 0.00 | 0.00 | 18 | 1023.0 |
| 20260501233711 | 64 | 24 | 0.0 | 0.0 | 0.00 | 0.00 | 0.00 | 18 | 1023.0 |
| 20260501232733 | 64 | 23 | 0.0 | 0.0 | 0.00 | 0.00 | 0.00 | 16 | 1024.0 |
| 20260501231755 | 64 | 23 | 0.0 | 0.0 | 0.00 | 0.00 | 0.00 | 16 | 1024.0 |
| 20260501230817 | 64 | 22 | 0.0 | 0.0 | 0.00 | 0.00 | 0.00 | 16 | 1024.0 |
| 20260501225839 | 64 | 22 | 0.0 | 0.0 | 0.00 | 0.00 | 0.00 | 16 | 1024.0 |
| 20260501224901 | 64 | 24 | 0.0 | 0.0 | 0.00 | 0.00 | 0.00 | 16 | 1024.0 |
| 20260501223923 | 64 | 24 | 0.0 | 0.0 | 0.00 | 0.00 | 0.00 | 18 | 1023.0 |
| 20260501222946 | 64 | 23 | 0.0 | 0.0 | 0.00 | 0.00 | 0.00 | 18 | 1024.0 |
| 20260501222008 | 64 | 22 | 0.0 | 0.0 | 0.00 | 0.00 | 0.00 | 18 | 1024.0 |
| 20260501221030 | 64 | 23 | 0.0 | 0.0 | 0.00 | 0.00 | 0.00 | 18 | 1023.0 |
| 20260501220052 | 64 | 22 | 0.0 | 0.0 | 0.00 | 0.00 | 0.00 | 16 | 1023.0 |
| 20260501215114 | 64 | 22 | 0.0 | 0.0 | 0.00 | 0.00 | 0.00 | 16 | 1023.0 |
| 20260501213159 | 64 | 21 | 0.0 | 0.0 | 0.00 | 0.00 | 0.00 | 16 | 1024.0 |
| 20260501212221 | 64 | 24 | 0.0 | 0.0 | 0.00 | 0.00 | 0.00 | 16 | 1024.0 |
| 20260501211243 | 64 | 22 | 0.0 | 0.0 | 0.00 | 0.00 | 0.00 | 16 | 1024.0 |
| 20260501210305 | 64 | 23 | 0.0 | 0.0 | 0.00 | 0.00 | 0.00 | 16 | 1024.0 |
| 20260501205327 | 64 | 22 | 0.0 | 0.0 | 0.00 | 0.00 | 0.00 | 18 | 1024.0 |
| 20260501204349 | 64 | 24 | 0.0 | 0.0 | 0.00 | 0.00 | 0.00 | 18 | 1024.0 |
| 20260501202434 | 64 | 23 | 0.0 | 0.0 | 0.00 | 0.00 | 0.00 | 18 | 1023.0 |
| 20260501201457 | 64 | 24 | 0.0 | 0.0 | 0.00 | 0.00 | 0.00 | 18 | 1024.0 |
| 20260501200520 | 64 | 26 | 0.0 | 0.0 | 0.00 | 0.00 | 0.00 | 18 | 1023.0 |
| 20260501195542 | 64 | 23 | 0.0 | 0.0 | 0.00 | 0.00 | 0.00 | 18 | 1023.0 |
| 20260501194604 | 64 | 23 | 0.0 | 0.0 | 0.00 | 0.00 | 0.00 | 18 | 1023.0 |
| 20260501192648 | 64 | 24 | 0.0 | 0.0 | 0.00 | 0.00 | 0.00 | 18 | 1023.0 |
| 20260501191710 | 64 | 24 | 0.0 | 0.0 | 0.00 | 0.00 | 0.00 | 18 | 1023.0 |
| 20260501190732 | 64 | 22 | 0.0 | 0.0 | 0.00 | 0.00 | 0.00 | 16 | 1023.0 |
| 20260501185755 | 64 | 23 | 0.0 | 0.0 | 0.00 | 0.00 | 0.00 | 18 | 1023.0 |
| 20260501184816 | 64 | 24 | 0.0 | 0.0 | 0.00 | 0.00 | 0.00 | 18 | 1023.0 |
| 20260501183838 | 64 | 23 | 0.0 | 0.0 | 0.00 | 0.00 | 0.00 | 18 | 1023.0 |
| 20260501182901 | 64 | 25 | 0.0 | 0.0 | 0.00 | 0.00 | 0.00 | 18 | 1022.0 |
| 20260501181923 | 64 | 24 | 0.0 | 0.0 | 0.00 | 0.00 | 0.00 | 18 | 1022.0 |
| 20260501180945 | 64 | 24 | 0.0 | 0.0 | 0.00 | 0.00 | 0.00 | 16 | 1022.0 |
| 20260501180008 | 64 | 21 | 0.0 | 0.0 | 0.00 | 0.00 | 0.00 | 16 | 1022.0 |
| 20260501174050 | 64 | 21 | 0.0 | 0.0 | 0.00 | 0.00 | 0.00 | 16 | 1022.0 |
| 20260501173112 | 64 | 19 | 0.0 | 0.0 | 0.00 | 0.00 | 0.00 | 15 | 1022.0 |